Back to catalog

STARLINK-36976

AliveCommunicationsVLEO
NORAD 68066·PAYLOAD·🇺🇸 United States

Launched Mar 2, 2026 from Vandenberg Space Force Base

Loading…

Next Passes (next 24 hours)

TLE

FreshSource: CelesTrak SupGP

Epoch: Sep 14, 2026, 14:55 UTC

1 68066C 26041AC  26257.62201389 -.00032081  00000+0 -94814-3 0  2573
2 68066  53.1578 246.9646 0001277  82.6153 141.9445 15.34396269    13

Track STARLINK-36976 in real time with AllMySat

Download on the App Store